Regional Weather Roundup
Issued by NWS

Home | Current Version | Previous Version | Text Only | Print | Product List | Glossary Off
Versions: 1 2 3 4 5 6 7 8 9 10 11 12 13 14 15 16 17 18 19 20 21 22 23 24 25 26 27 28 29 30 31 32 33 34 35 36 37 38 39 40 41 42 43 44 45 46 47 48 49 50

000
ASUS45 KABQ 030610
RWRNM
NEW MEXICO REGIONAL WEATHER ROUNDUP
NATIONAL WEATHER SERVICE ALBUQUERQUE NM
1200 AM MDT FRI JUL 03 2015

NOTE: "FAIR" MEANS FEW OR NO CLOUDS BELOW 12,000 FEET AGL WITH NO
       SIGNIFICANT WEATHER OR OBSTRUCTIONS TO VISION.

      THIS PRODUCT IS RELEASED AS TWO VERSIONS.  ONE VERSION NEAR
      THE TOP OF THE HOUR CONTAINING PRELIMINARY DATA FROM ALBUQUERQUE
      AND OTHER STATIONS.  A FINAL VERSION WITH ADDITIONAL DATA IS
      ISSUED ABOUT 10 MINUTES AFTER THE HOUR.

NMZ501-503-504-510>518-030700-
NORTHWEST PLATEAU/NORTHCENTRAL MOUNTAINS

CITY           SKY/WX    TMP DP  RH WIND       PRES   REMARKS
FARMINGTON     MOCLDY    68  55  63 W6        30.21R
6HR MIN TEMP:  67; 6HR MAX TEMP:  89; 6HR PCP:  0.02;

LOS ALAMOS     DRIZZLE   62  53  72 SW9       30.32F
SANTA FE       CLOUDY    63  57  81 CALM      30.26S
6HR MIN TEMP:  62; 6HR MAX TEMP:  74; 6HR PCP: TRACE;

TAOS           CLOUDY    57  46  67 NE3       30.32S
ANGEL FIRE     FAIR      52  51  96 CALM      30.42S

$$
NMZ402-403-502-505>509-030700-
WESTCENTRAL MOUNTAINS/SOUTHWEST MOUNTAINS

CITY           SKY/WX    TMP DP  RH WIND       PRES   REMARKS
GALLUP         CLOUDY    66  56  70 E15       30.23F
6HR MIN TEMP:  66; 6HR MAX TEMP:  78; 6HR PCP: TRACE;

GRANTS         LGT RAIN  63  59  87 NW8       30.32R
SILVER CITY      N/A     75  55  50 E18G29    30.11R

$$
NMZ407-409-411-412-030700-
SOUTHERN DESERTS

CITY           SKY/WX    TMP DP  RH WIND       PRES   REMARKS
LORDSBURG      FAIR      79  55  44 NW3       30.03R
DEMING         CLOUDY    82  54  37 NE22G32   30.01S
6HR MIN TEMP:  82; 6HR MAX TEMP:  95; 6HR PCP: TRACE;

LAS CRUCES     CLOUDY    85  49  28 CALM      30.05R
HOLLOMAN AFB   TSTM      73  62  67 N21G30    30.05R
ALAMOGORDO     CLOUDY    81  55  41 NW25G32   30.05R
T OR C         CLOUDY    77  55  46 NE16      30.12R
6HR MIN TEMP:  77; 6HR MAX TEMP:  99;


$$
NMZ519>523-030700-
CENTRAL VALLEYS/CENTRAL HIGHLANDS

CITY           SKY/WX    TMP DP  RH WIND       PRES   REMARKS
ALBUQUERQUE    CLOUDY    72  59  63 N10       30.20R
6HR MIN TEMP:  70; 6HR MAX TEMP:  79; 6HR PCP:  0.05;

DOUBLE EAGLE   CLOUDY    66  60  79 CALM      30.24R
MORIARTY ARPT    N/A     63  59  87 N3        30.26F
6HR MIN TEMP:  63; 6HR MAX TEMP:  68; 6HR PCP:  0.01;

CLINES CORNERS CLOUDY    63  54  72 NE13      30.29S
6HR MIN TEMP:  63; 6HR MAX TEMP:  68; 6HR PCP: TRACE;

BELEN          FAIR      69  59  71 CALM      30.16F
6HR MIN TEMP:  69; 6HR MAX TEMP:  85; 6HR PCP:  0.02;

SOCORRO        FAIR      68  61  78 NW7       30.14F
6HR MIN TEMP:  65; 6HR MAX TEMP:  95; 6HR PCP:  0.19;


$$
NMZ524>526-539-540-030700-
SOUTHCENTRAL MOUNTAINS

CITY           SKY/WX    TMP DP  RH WIND       PRES   REMARKS
RUIDOSO        LGT RAIN  57  57 100 W7        30.31F

$$
NMZ527>531-030700-
NORTHEAST HIGHLANDS/NORTHEAST PLAINS

CITY           SKY/WX    TMP DP  RH WIND       PRES   REMARKS
LAS VEGAS      CLOUDY    58  54  86 SW5       30.30F
6HR MIN TEMP:  57; 6HR MAX TEMP:  70; 6HR PCP:  0.09;

RATON          MOCLDY    62  57  83 N5        30.26R
6HR MIN TEMP:  62; 6HR MAX TEMP:  74;

CLAYTON        CLOUDY    66  63  90 E5        30.17F
6HR MIN TEMP:  66; 6HR MAX TEMP:  83;


$$
NMZ532>537-030700-
EASTCENTRAL PLAINS

CITY           SKY/WX    TMP DP  RH WIND       PRES   REMARKS
TUCUMCARI      LGT RAIN  71  64  78 N29G45    30.09R
6HR MIN TEMP:  71; 6HR MAX TEMP:  89; 6HR PCP:  0.03;

CANNON AFB     CLOUDY    72  62  68 W7        30.10R
6HR MIN TEMP:  72; 6HR MAX TEMP:  86;

CLOVIS AIRPORT CLOUDY    70  63  78 CALM        N/A

$$
NMZ028-029-538-030700-
SOUTHEAST PLAINS

CITY           SKY/WX    TMP DP  RH WIND       PRES   REMARKS
ROSWELL        CLOUDY    77  61  57 N5        30.05S
6HR MIN TEMP:  76; 6HR MAX TEMP:  89;

ARTESIA        CLOUDY    79  59  50 NW6G12    30.06S
CARLSBAD       CLOUDY    82  60  47 SE9       30.02R
6HR MIN TEMP:  82; 6HR MAX TEMP:  97;

HOBBS          MOCLDY    75  61  60 SE7       30.07R


$$


USA.gov is the U.S. government's official web portal to all federal, state and local government web resources and services.